[[{"header":{"parameterUnit":"m.s-1","parameterCategory":1,"la1":30.2991,"la2":30.254,"lo1":-89.0895,"lo2":-89.0444,"dy":0.0017,"dx":0.0017,"nx":28,"ny":28,"refTime":"2025-02-01T03:00:00:Z","depth":0,"parameterNumber":2,"parameterNumberName":"U-component_of_WINDS"},"data":[0,0,0,0,0,0,0,0,0,0,0,0,0,0,0,0,0,0,0,0,0,0,0,0,0,0,0,0,0,0,0,0,0,0,0,0,0,0,0,0,0,0,0,0,0,0,0,0,0,0,0,0,0,0,0,0,0,0,-0.0151,-0.0151,0,-0.0168,-0.0168,-0.0168,-0.0181,-0.0181,-0.0181,-0.0181,-0.02,-0.02,-0.0201,0,0,0,0,0,0,0,0,0,0,0,0,0,-0.013,-0.013,-0.0151,-0.0151,-0.0151,-0.0168,-0.0168,-0.0168,-0.0181,-0.0181,-0.0181,-0.0181,-0.02,-0.02,-0.0201,0,0,0,0,0,0,0,0,0,0,0,0,0,-0.0142,-0.0131,-0.0151,-0.0159,-0.016,-0.0168,-0.0168,-0.0168,-0.0181,-0.0181,-0.0181,-0.0181,-0.02,-0.02,-0.0201,-0.0201,0,0,-0.0203,-0.0203,0,0,0,0,0,0,0,0,-0.0142,-0.0143,-0.0158,-0.0159,-0.016,-0.0172,-0.0168,-0.0179,-0.0181,-0.0173,-0.0181,-0.0181,-0.0191,-0.0192,-0.0195,-0.0202,-0.0203,-0.0203,-0.0203,-0.0203,-0.0204,0,0,0,0,0,0,0,-0.0141,-0.0142,-0.0158,-0.0158,-0.0159,-0.0163,-0.0165,-0.017,-0.0181,-0.0174,-0.0175,-0.0177,-0.0191,-0.0194,-0.0196,-0.0203,-0.0203,-0.0203,-0.0204,-0.0204,-0.0212,-0.0212,0,0,0,0,0,0,-0.0138,-0.0142,-0.0157,-0.0158,-0.0151,-0.0163,-0.0165,-0.0168,-0.0181,-0.0183,-0.0176,-0.0177,-0.0193,-0.0195,-0.0196,-0.0198,-0.0203,-0.0204,-0.0204,-0.0212,-0.0212,-0.0212,0,0,0,0,0,0,-0.0138,-0.014,-0.0156,-0.015,-0.0152,-0.0163,-0.0167,-0.0168,-0.0172,-0.0183,-0.0185,-0.0177,-0.0194,-0.0195,-0.02,-0.0199,-0.0204,-0.0205,-0.0213,-0.0212,-0.0212,-0.0201,0,0,0,0,0,0,-0.0137,-0.0139,-0.0139,-0.015,-0.0153,-0.0159,-0.0166,-0.0169,-0.0172,-0.0173,-0.0184,-0.0186,-0.0194,-0.0199,-0.0201,-0.02,-0.0205,-0.0213,-0.0212,-0.0212,-0.0201,-0.02,-0.0199,0,0,0,0,0,-0.0137,-0.0136,-0.0139,-0.0141,-0.0153,-0.0159,-0.0161,-0.0169,-0.0172,-0.0172,-0.018,-0.0186,-0.0199,-0.0199,-0.0201,-0.02,-0.0213,-0.0213,-0.0212,-0.0202,-0.02,-0.0199,0,0,0,0,0,0,-0.0125,-0.0137,-0.0141,-0.0144,-0.015,-0.0161,-0.0162,-0.0167,-0.0173,-0.0174,-0.0185,-0.0187,-0.019,-0.0196,-0.0197,-0.0202,-0.0207,-0.0207,-0.0198,-0.0197,-0.0196,-0.0194,-0.0206,0,0,0,0,0,-0.0123,-0.0126,-0.0137,-0.0138,-0.0141,-0.0151,-0.0154,-0.016,-0.0167,-0.017,-0.0178,-0.0185,-0.019,-0.0194,-0.02,-0.0202,-0.0205,-0.0203,-0.0202,-0.0201,-0.0201,-0.0203,-0.0202,-0.0211,-0.0211,-0.0211,0,0,-0.0118,-0.0125,-0.0127,-0.0136,-0.0142,-0.0146,-0.0153,-0.0157,-0.016,-0.0171,-0.0175,-0.0181,-0.019,-0.0194,-0.0196,-0.0198,-0.0199,-0.02,-0.0199,-0.02,-0.0202,-0.0201,-0.0201,-0.0211,-0.0211,-0.0211,0,0,-0.0111,-0.0117,-0.0119,-0.0124,-0.0133,-0.0139,-0.014,-0.015,-0.0154,-0.0159,-0.0167,-0.0171,-0.018,-0.0186,-0.0191,-0.0187,-0.0193,-0.0188,-0.0183,-0.0185,-0.0184,-0.0184,-0.0182,-0.0182,-0.0188,-0.0188,-0.0188,0,-0.0105,-0.011,-0.0119,-0.0122,-0.0126,-0.0136,-0.0138,-0.0143,-0.0153,-0.0156,-0.0159,-0.0171,-0.0177,-0.0182,-0.0181,-0.0185,-0.0186,-0.0187,-0.0184,-0.0183,-0.0183,-0.0182,-0.0181,-0.0188,-0.0188,-0.0188,-0.0188,0,-0.0102,-0.0106,-0.0106,-0.0115,-0.0119,-0.0122,-0.0131,-0.0135,-0.014,-0.0147,-0.0152,-0.016,-0.0168,-0.0169,-0.0175,-0.0175,-0.0177,-0.0181,-0.0187,-0.0181,-0.018,-0.018,-0.0187,-0.0187,-0.0187,-0.0187,0,0,-0.0088,-0.0102,-0.0102,-0.0107,-0.0117,-0.012,-0.0124,-0.0131,-0.0133,-0.014,-0.0143,-0.0151,-0.0156,-0.016,-0.0167,-0.0169,-0.0165,-0.0173,-0.0173,-0.0171,-0.0167,-0.0163,-0.0163,-0.0169,-0.0169,-0.0169,-0.0166,0,-0.0084,-0.009,-0.0097,-0.0101,-0.0105,-0.0114,-0.0117,-0.0124,-0.013,-0.0135,-0.0142,-0.0147,-0.0152,-0.0155,-0.0157,-0.0165,-0.0164,-0.0165,-0.0173,-0.0173,-0.017,-0.0162,-0.0159,-0.0155,-0.0166,-0.0166,-0.0166,0,-0.0079,-0.0085,-0.0088,-0.0098,-0.01,-0.0103,-0.011,-0.0114,-0.0123,-0.0127,-0.0132,-0.0139,-0.0144,-0.0148,-0.0155,-0.0155,-0.0159,-0.0163,-0.0163,-0.0164,-0.0169,-0.0163,-0.0154,-0.0154,-0.0165,-0.0165,-0.0165,0,-0.0069,-0.0078,-0.0081,-0.0085,-0.0096,-0.0098,-0.0103,-0.0111,-0.0115,-0.0122,-0.0124,-0.0132,-0.0135,-0.0141,-0.015,-0.0152,-0.0156,-0.0161,-0.016,-0.016,-0.016,-0.016,-0.0152,-0.0162,-0.0162,-0.0162,-0.0162,0,-0.0062,-0.0065,-0.0077,-0.0079,-0.0082,-0.0091,-0.0094,-0.0099,-0.0107,-0.0111,-0.0119,-0.0123,-0.0134,-0.0139,-0.0146,-0.0151,-0.0152,-0.0156,-0.0158,-0.0156,-0.0155,-0.0158,-0.0159,-0.0162,-0.0162,-0.0162,-0.0162,0,-0.0052,-0.006,-0.0064,-0.0075,-0.0078,-0.0079,-0.0089,-0.0091,-0.0098,-0.0103,-0.0105,-0.0115,-0.0122,-0.0131,-0.014,-0.0145,-0.0149,-0.0152,-0.0146,-0.0147,-0.0145,-0.0145,-0.0139,-0.0139,-0.0149,-0.0149,-0.0149,0,-0.0047,-0.0049,-0.006,-0.0063,-0.0067,-0.0072,-0.0076,-0.0085,-0.0089,-0.0099,-0.0101,-0.0107,-0.0114,-0.0123,-0.0132,-0.014,-0.0143,-0.014,-0.0144,-0.0141,-0.0143,-0.0143,-0.0143,-0.0139,-0.0139,-0.0139,-0.0139,0,-0.0039,-0.0043,-0.0048,-0.0054,-0.0059,-0.0065,-0.0071,-0.0073,-0.0084,-0.0088,-0.0094,-0.0099,-0.0108,-0.0115,-0.0124,-0.013,-0.0136,-0.0137,-0.0138,-0.0135,-0.0132,-0.0134,-0.0143,-0.0138,-0.0138,-0.0138,-0.0138,-0.0138,-0.0031,-0.0033,-0.0041,-0.0047,-0.0052,-0.0058,-0.0061,-0.0068,-0.0073,-0.0081,-0.0087,-0.0093,-0.0102,-0.0114,-0.0119,-0.0124,-0.0127,-0.0127,-0.0127,-0.0127,-0.0127,-0.0131,-0.0126,-0.0126,-0.0126,-0.0126,-0.0126,0,-0.0023,-0.0028,-0.0033,-0.0042,-0.0046,-0.0052,-0.0059,-0.0062,-0.0068,-0.0075,-0.008,-0.0088,-0.0095,-0.0104,-0.0112,-0.0115,-0.0118,-0.0116,-0.0116,-0.0118,-0.0124,-0.0123,-0.0114,-0.0114,-0.0114,-0.0114,-0.0114,-0.0114,-0.0019,-0.0023,-0.0028,-0.0035,-0.0041,-0.0046,-0.005,-0.0056,-0.0061,-0.0069,-0.0075,-0.0081,-0.0089,-0.0097,-0.0104,-0.0107,-0.0109,-0.0107,-0.0111,-0.0116,-0.0117,-0.0118,-0.0117,-0.0107,-0.0107,-0.0104,-0.0104,-0.0104]},{"header":{"parameterUnit":"m.s-1","parameterCategory":1,"la1":30.2991,"la2":30.254,"lo1":-89.0895,"lo2":-89.0444,"dy":0.0017,"dx":0.0017,"nx":28,"ny":28,"refTime":"2025-02-01T03:00:00:Z","depth":0,"parameterNumber":3,"parameterNumberName":"V-component_of_WINDS"},"data":[0,0,0,0,0,0,0,0,0,0,0,0,0,0,0,0,0,0,0,0,0,0,0,0,0,0,0,0,0,0,0,0,0,0,0,0,0,0,0,0,0,0,0,0,0,0,0,0,0,0,0,0,0,0,0,0,0,0,-0.8807,-0.8808,0,-0.8873,-0.8874,-0.8874,-0.8914,-0.8914,-0.8914,-0.8915,-0.898,-0.8981,-0.8983,0,0,0,0,0,0,0,0,0,0,0,0,0,-0.8716,-0.8717,-0.8807,-0.8808,-0.8809,-0.8873,-0.8874,-0.8875,-0.8914,-0.8914,-0.8915,-0.8915,-0.8979,-0.8981,-0.8983,0,0,0,0,0,0,0,0,0,0,0,0,0,-0.8766,-0.8717,-0.8807,-0.8836,-0.884,-0.8873,-0.8874,-0.8875,-0.8914,-0.8914,-0.8915,-0.8915,-0.8979,-0.8981,-0.8983,-0.8992,0,0,-0.899,-0.8991,0,0,0,0,0,0,0,0,-0.8763,-0.8769,-0.8831,-0.8835,-0.8838,-0.8886,-0.8865,-0.8914,-0.8914,-0.8886,-0.8915,-0.8915,-0.8948,-0.8953,-0.8965,-0.8995,-0.8998,-0.8991,-0.8992,-0.8993,-0.8994,0,0,0,0,0,0,0,-0.8759,-0.8766,-0.8833,-0.8832,-0.8836,-0.8846,-0.8853,-0.8875,-0.8914,-0.8888,-0.8891,-0.8899,-0.895,-0.8962,-0.8966,-0.8998,-0.8991,-0.8993,-0.8994,-0.8995,-0.9039,-0.9039,0,0,0,0,0,0,-0.8751,-0.8763,-0.8831,-0.8835,-0.88,-0.8847,-0.8856,-0.887,-0.8914,-0.8921,-0.8898,-0.89,-0.8958,-0.8964,-0.8969,-0.8982,-0.8993,-0.8995,-0.8997,-0.904,-0.9039,-0.9039,0,0,0,0,0,0,-0.8749,-0.8757,-0.8829,-0.88,-0.881,-0.8849,-0.8864,-0.8871,-0.8883,-0.8922,-0.8929,-0.8903,-0.8959,-0.8966,-0.8986,-0.8985,-0.8996,-0.8998,-0.904,-0.904,-0.9039,-0.9008,0,0,0,0,0,0,-0.8746,-0.8756,-0.876,-0.88,-0.8811,-0.8845,-0.8864,-0.8872,-0.8888,-0.8891,-0.8929,-0.8935,-0.8959,-0.8982,-0.8988,-0.8988,-0.9,-0.904,-0.904,-0.9039,-0.9009,-0.9007,-0.9004,0,0,0,0,0,-0.8743,-0.8748,-0.876,-0.8768,-0.8817,-0.8845,-0.8851,-0.8879,-0.8887,-0.8891,-0.8916,-0.8934,-0.8984,-0.8984,-0.8991,-0.8992,-0.904,-0.904,-0.9039,-0.901,-0.9007,-0.9004,0,0,0,0,0,0,-0.8706,-0.8753,-0.8767,-0.8785,-0.8811,-0.8851,-0.8857,-0.8875,-0.8898,-0.89,-0.8933,-0.8942,-0.8959,-0.8977,-0.8977,-0.9002,-0.9014,-0.9015,-0.899,-0.8987,-0.8984,-0.898,-0.9002,0,0,0,0,0,-0.87,-0.8719,-0.8759,-0.8771,-0.8783,-0.8818,-0.8831,-0.8851,-0.8878,-0.8889,-0.8915,-0.8941,-0.8962,-0.8976,-0.8997,-0.9012,-0.9021,-0.9016,-0.9014,-0.9011,-0.9012,-0.9021,-0.902,-0.9038,-0.9038,-0.9038,0,0,-0.8687,-0.8716,-0.8725,-0.8765,-0.8787,-0.8805,-0.8827,-0.8845,-0.8859,-0.8892,-0.8913,-0.8933,-0.8963,-0.8981,-0.899,-0.8997,-0.9009,-0.9011,-0.9009,-0.901,-0.9021,-0.9019,-0.9017,-0.9037,-0.9037,-0.9037,0,0,-0.8674,-0.8697,-0.871,-0.8732,-0.8766,-0.8789,-0.8792,-0.883,-0.8845,-0.8867,-0.8891,-0.8908,-0.8945,-0.8966,-0.8981,-0.8977,-0.8994,-0.8983,-0.897,-0.8979,-0.8978,-0.8976,-0.8975,-0.8974,-0.8983,-0.8983,-0.8983,0,-0.8654,-0.8684,-0.8715,-0.8732,-0.8749,-0.8779,-0.8793,-0.8812,-0.885,-0.8861,-0.8868,-0.8915,-0.8938,-0.8961,-0.896,-0.8972,-0.8976,-0.8979,-0.8975,-0.8975,-0.8974,-0.8973,-0.8973,-0.8982,-0.8982,-0.8982,-0.8982,0,-0.8658,-0.8678,-0.8684,-0.8722,-0.8739,-0.8754,-0.8787,-0.8801,-0.8819,-0.8841,-0.8863,-0.8892,-0.892,-0.8927,-0.8945,-0.8953,-0.8956,-0.8969,-0.8982,-0.897,-0.897,-0.897,-0.8979,-0.898,-0.898,-0.8981,0,0,-0.8622,-0.8677,-0.8679,-0.8697,-0.8736,-0.8752,-0.8769,-0.8797,-0.8808,-0.8834,-0.8849,-0.8879,-0.8892,-0.8909,-0.8929,-0.8937,-0.8932,-0.8949,-0.895,-0.8945,-0.8944,-0.8934,-0.8933,-0.8944,-0.8944,-0.8944,-0.8941,0,-0.8615,-0.8647,-0.8676,-0.8697,-0.8717,-0.8746,-0.8761,-0.8787,-0.8808,-0.8827,-0.885,-0.8872,-0.8886,-0.8897,-0.8906,-0.8931,-0.8933,-0.8932,-0.8958,-0.8959,-0.895,-0.8933,-0.8923,-0.8918,-0.8941,-0.8941,-0.8941,0,-0.8611,-0.8636,-0.866,-0.8698,-0.8707,-0.872,-0.8749,-0.8767,-0.8796,-0.8811,-0.8831,-0.8853,-0.8872,-0.8882,-0.8909,-0.8908,-0.892,-0.8934,-0.8935,-0.8938,-0.8949,-0.8936,-0.8917,-0.8917,-0.8941,-0.8941,-0.8941,0,-0.8583,-0.8623,-0.8642,-0.8656,-0.8701,-0.871,-0.8729,-0.8759,-0.8774,-0.8799,-0.881,-0.8836,-0.8851,-0.8871,-0.8899,-0.8904,-0.8923,-0.8936,-0.8936,-0.8935,-0.8938,-0.8937,-0.8921,-0.8946,-0.8946,-0.8946,-0.8946,0,-0.8572,-0.8585,-0.8631,-0.8642,-0.8658,-0.8691,-0.8706,-0.8727,-0.8754,-0.877,-0.8798,-0.8812,-0.8849,-0.8868,-0.889,-0.8909,-0.8915,-0.8928,-0.8933,-0.8925,-0.8924,-0.8934,-0.8935,-0.8946,-0.8946,-0.8946,-0.8946,0,-0.8543,-0.8574,-0.8597,-0.8638,-0.8649,-0.8659,-0.8694,-0.8707,-0.873,-0.875,-0.8757,-0.8793,-0.8817,-0.8848,-0.8881,-0.8896,-0.8912,-0.8921,-0.8903,-0.8906,-0.8904,-0.8904,-0.8894,-0.8895,-0.8919,-0.8918,-0.8918,0,-0.8534,-0.8545,-0.8588,-0.8601,-0.862,-0.8641,-0.8657,-0.869,-0.8705,-0.8741,-0.8749,-0.8775,-0.8798,-0.8835,-0.8864,-0.889,-0.89,-0.8894,-0.8904,-0.8895,-0.89,-0.8899,-0.89,-0.8892,-0.8891,-0.8891,-0.8891,0,-0.8515,-0.853,-0.8552,-0.8581,-0.86,-0.8623,-0.8648,-0.8658,-0.8695,-0.8712,-0.8737,-0.8755,-0.879,-0.8815,-0.8845,-0.8864,-0.8884,-0.8888,-0.8889,-0.8881,-0.887,-0.8876,-0.8896,-0.8888,-0.8888,-0.8888,-0.8888,-0.8889,-0.8496,-0.8507,-0.8539,-0.8564,-0.8586,-0.8609,-0.8623,-0.8649,-0.867,-0.8702,-0.872,-0.8744,-0.8774,-0.8817,-0.8835,-0.8855,-0.8862,-0.8864,-0.8864,-0.8864,-0.8862,-0.8867,-0.886,-0.886,-0.8861,-0.8861,-0.8861,0,-0.8478,-0.85,-0.8522,-0.8557,-0.8576,-0.8594,-0.8622,-0.8637,-0.8659,-0.8686,-0.8708,-0.8737,-0.8763,-0.8794,-0.8821,-0.8831,-0.8841,-0.8837,-0.8837,-0.8841,-0.8854,-0.885,-0.8829,-0.8829,-0.8829,-0.8829,-0.8829,-0.8829,-0.8471,-0.8491,-0.851,-0.8542,-0.8564,-0.8589,-0.8604,-0.8626,-0.8647,-0.8679,-0.87,-0.8721,-0.875,-0.8779,-0.8804,-0.8812,-0.8821,-0.8815,-0.8826,-0.8837,-0.884,-0.8843,-0.8839,-0.8816,-0.8816,-0.8812,-0.8812,-0.8811]}]]